www.pogodaiklimat.ru

Погода и климат >> Архив погоды >> Россия >> Краснодарский край >> Сочи


АРХИВ ПОГОДЫ в Сочи

Время (UTC), дата Ветер
(напр.,м/с)
 
Видим.   Явления Облачность Т
(С)
Тd
(С)
f
(%)
Тe
(С)
Тes
(С)
Комфортность P
(гПа)
Po
(гПа)
Тmin
(С)
Tmax
(С)
R
(мм)
R24
(мм)
S
(см)
00 11.11 В 1 20 км ясно +11.2 +6.1 71 +11 +11 по сезону 1021.4 1005.4
03 11.11 В 1 20 км ясно +11.1 +5.0 66 +11 +11 по сезону 1021.2 1005.2 +10.7
06 11.11 В 1 20 км ясно +12.6 +6.6 67 +13 +14 тепло 1022.1 1006.2 +9.8
09 11.11 ЮЗ 2 20 км 10/0
[Ci fib]
+16.6 +6.7 52 +17 +21 тепло 1021.9 1006.2
12 11.11 СЗ 4 20 км 4/0
[Ci fib]
+17.2 +9.1 59 +17 +18 тепло 1021.6 1006.0
15 11.11 СЗ 2 20 км 10/0
[Ci fib]
+14.6 +8.8 68 +14 +14 тепло 1022.1 1006.3 +17.7
18 11.11 В 1 20 км 3/0
[Ac cast]
+12.0 +8.1 77 +12 +12 по сезону 1022.7 1006.8
21 11.11 Ю 1 20 км ясно +12.9 +8.8 76 +13 +13 тепло 1023.8 1007.9
00 12.11 штиль 0 20 км 10/0
[Ac cast Ci fib]
+11.1 +9.7 91 +10 +10 по сезону 1024.1 1008.1
03 12.11 СЗ 2 20 км 10/10 1000 м
[Sc]
+12.3 +10.0 86 +11 +11 по сезону 1024.3 1008.4 +10.9
06 12.11 штиль 0 20 км 10/6 600 м
[Cb cap Ac cast Ci fib]
+12.6 +11.0 90 +12 +12 по сезону 1024.9 1009.0
09 12.11 В 1 20 км в посл. час ливневой дождь 10/10 600 м
[Cb cap]
+12.2 +12.2 100 +12 +12 по сезону 1025.1 1009.2
12 12.11 В 3 20 км в посл. час ливневой дождь 9/9 600 м
[Cb cap]
+14.0 +11.3 84 +13 +13 по сезону 1024.3 1008.5
15 12.11 В 1 20 км в посл. час ливневой дождь 9/9 1000 м
[Cb cap]
+11.6 +11.6 100 +11 +11 по сезону 1024.8 1008.8 +14.5 2
18 12.11 В 2 16 км слабый ливневой дождь 10/10 600 м
[Cb cap]
+10.7 +10.7 100 +9 +9 по сезону 1024.8 1008.8
21 12.11 З 4 14 км слабый ливневой дождь 10/10 600 м
[Cb cap]
+10.6 +10.4 99 +8 +8 по сезону 1025.4 1009.4
00 13.11 С 1 20 км {ливн. осадки} 10/10 600 м
[Sc]
+8.9 +8.3 96 +8 +8 по сезону 1025.9 1009.7
03 13.11 СВ 1 20 км 10/10 600 м
[Cu Sc]
+8.4 +7.5 94 +8 +8 по сезону 1026.1 1009.9 +8.1 4
06 13.11 С 1 20 км 10/10 600 м
[Cb cap]
+9.0 +7.9 93 +8 +8 по сезону 1025.9 1009.7 +8.0
09 13.11 СЗ 3 20 км 10/10 600 м
[Cb cap]
+8.1 +7.2 94 +5 +5 холодно 1025.1 1008.9
12 13.11 СЗ 1 4000 м слабый ливневой дождь 10/10 300 м
[Cb cap]
+6.7 +6.7 100 +5 +5 очень
холодно
1025.5 1009.2
15 13.11 В 1 6000 м в посл. час ливневой дождь 10/10 600 м
[Cb cap]
+5.9 +5.9 100 +5 +5 холодно 1025.7 1009.4 +9.5 0.7
18 13.11 СВ 1 20 км {ливн. осадки} 10/6 1000 м
[Cu med, cong Ac trans Ci fib]
+5.9 +5.9 100 +5 +5 прохладно 1025.6 1009.3
21 13.11 штиль 0 20 км 10/3 1000 м
[Cu med, cong Ac trans Ci fib]
+6.2 +5.0 92 +5 +5 прохладно 1024.8 1008.5
00 14.11 В 1 9000 м слабый ливневой дождь 10/10 600 м
[Cb cap]
+6.3 +6.3 100 +5 +5 прохладно 1023.7 1007.4
03 14.11 С 1 20 км слабый ливневой дождь 10/10 600 м
[Cb cap]
+6.4 +6.4 100 +5 +5 прохладно 1022.9 1006.6 +5.8 0.9
06 14.11 В 1 20 км в посл. час ливневой дождь 10/8 600 м
[Cb cap Ac trans]
+7.6 +7.6 100 +6 +7 прохладно 1022.5 1006.3
09 14.11 штиль 0 20 км слабый ливневой дождь 10/10 600 м
[Cb cap]
+10.5 +6.8 78 +10 +10 по сезону 1021.2 1005.2
12 14.11 штиль 0 20 км {ливн. осадки} 10/10 600 м
[Cb cap]
+10.5 +7.7 83 +10 +10 прохладно 1019.7 1003.7
15 14.11 В 1 9000 м слабый ливневой дождь 10/10 600 м
[Cb cap]
+8.9 +8.9 100 +8 +8 прохладно 1019.1 1003.1 +10.8 2
18 14.11 В 1 10 км в посл. час ливневой дождь 10/10 1000 м
[Cb cap]
+8.2 +8.2 100 +7 +7 по сезону 1018.1 1002.0
21 14.11 С 1 20 км 10/10 1000 м
[Sc]
+8.9 +7.4 90 +8 +8 по сезону 1016.0 1000.0
00 15.11 В 2 20 км 10/10 1000 м
[Sc]
+8.9 +7.2 89 +7 +7 по сезону 1014.9 998.9
03 15.11 В 2 14 км слабый ливневой дождь 10/10 1000 м
[Cb cap]
+8.1 +8.1 100 +6 +6 прохладно 1014.9 998.9 +8.0 3
06 15.11 В 1 8000 м слабый ливневой дождь 10/10 600 м
[Cb cap]
+8.2 +8.2 100 +7 +7 по сезону 1015.6 999.6
09 15.11 В 1 18 км слабый ливневой дождь 10/10 600 м
[Cb cap]
+9.5 +9.4 99 +9 +9 по сезону 1014.9 999.0
12 15.11 В 4 20 км слабый ливневой дождь 10/10 600 м
[Cb cap]
+9.5 +8.4 93 +7 +7 холодно 1015.7 999.7
15 15.11 В 5 20 км в посл. час ливневой дождь 10/6 600 м
[Cb cap Ac trans Ci fib]
+9.4 +7.0 85 +6 +6 холодно 1016.4 1000.4 +11.4 8
18 15.11 В 4 15 км слабый ливневой дождь 10/10 600 м
[Cb cap]
+10.0 +7.8 86 +7 +7 по сезону 1017.7 1001.7
21 15.11 В 4 20 км {ливн. осадки} 6/3 1000 м
[Cu med, cong Ac trans Ci fib]
+10.4 +5.2 70 +8 +8 по сезону 1018.7 1002.7
00 16.11 В 2 20 км {ливн. осадки} 6/3 600 м
[Cu med, cong Ac trans Ci fib]
+8.8 +6.8 87 +7 +7 по сезону 1019.1 1003.0
03 16.11 В 1 20 км 6/0
[Ac trans Ci fib]
+8.5 +6.3 86 +8 +8 по сезону 1018.5 1002.4 +8.2 0.4
06 16.11 В 1 20 км 10/10 1000 м
[Cb cap]
+8.9 +7.0 88 +8 +8 по сезону 1019.0 1002.9
09 16.11 С 1 20 км 10/10 1000 м
[Cb cap]
+11.5 +6.8 73 +11 +11 по сезону 1019.1 1003.2
12 16.11 З 2 20 км 10/10 1000 м
[Sc]
+12.9 +7.1 68 +12 +12 по сезону 1018.8 1003.0
15 16.11 СВ 1 20 км 9/9 1000 м
[Sc]
+11.7 +6.8 72 +12 +12 по сезону 1018.5 1002.6 +14.3
18 16.11 СВ 1 20 км 10/6 1000 м
[Sc Ci sp]
+10.6 +7.1 79 +10 +10 по сезону 1017.7 1001.8
21 16.11 СВ 1 10 км ливневой дождь 10/10 600 м
[Cb cap]
+9.6 +9.6 100 +9 +9 по сезону 1018.6 1002.6
00 17.11 ЮВ 1 10 км слабый ливневой дождь 10/10 200 м
[Cb cap]
+9.7 +9.7 100 +9 +9 по сезону 1020.2 1004.2
03 17.11 ЮЗ 4 20 км в посл. час ливневой дождь 10/10 600 м
[Cb cap]
+9.8 +9.8 100 +7 +7 по сезону 1023.3 1007.2 +9.0 15
06 17.11 штиль 0 20 км слабый ливневой дождь 10/8 600 м
[Cb cap Ac As]
+9.7 +9.1 96 +9 +9 по сезону 1025.8 1009.7
09 17.11 В 2 20 км слабый ливневой дождь 10/10 600 м
[Cb cap]
+8.8 +8.8 100 +7 +7 прохладно 1026.3 1010.1
12 17.11 В 2 20 км в посл. час ливневой дождь 10/10 600 м
[Cb cap]
+9.1 +9.1 100 +7 +7 холодно 1026.6 1010.4
15 17.11 В 2 7000 м слабый ливневой дождь 10/10 600 м
[Cb cap]
+8.5 +8.5 100 +6 +6 прохладно 1026.9 1010.7 +10.2 7
18 17.11 В 2 20 км слабый ливневой дождь 10/10 600 м
[Cb cap]
+8.0 +8.0 100 +6 +6 прохладно 1027.8 1011.6

 

Местоположение метеостанции Сочи (Краснодарский край, Россия): широта 43.58 долгота 39.77 высота над уровнем моря 132 м.

В архиве по умолчанию представлена погода в Сочи за последнюю неделю. Архивные данные за месяц целиком и за предыдущие месяцы, начиная с января 2011 года, Вы можете получить, выбрав интересующий диапазон дат из раскрывающегося списка и нажав кнопку "Ввод!".


*Определитесь, кто Вы:
робот инопланетянин человек

Внимание! Время в таблицах - всемирное. Для получения местного времени необходимо прибавить поправку, которая в Сочи равна 3 ч.

Смотрите также архив погоды в соседних городах и на ближайших метеорологических станциях:

Погода в Сочи аэропорту (Адлер) (Краснодарский край, Россия) (20 км)
Погода в Кепше (Краснодарский край, Россия) (23 км)
Погода в Имеретинке (Краснодарский край, Россия) (25 км)
Погода в Солох Ауле (Краснодарский край, Россия) (27 км)
Погода в Кичмае (Краснодарский край, Россия) (35 км)
Погода в Красной Поляне (Краснодарский край, Россия) (36 км)
Погода в Горная Карусель 1500 (Краснодарский край, Россия) (43 км)
Погода в Горная Карусель 1000 (Краснодарский край, Россия) (43 км)
Погода в Кордоне Лаура (Краснодарский край, Россия) (45 км)
Погода в Лазаревском (Краснодарский край, Россия) (50 км)

Пояснения к столбцам:

Ветер - указаны скорость ветра в м/с - средняя за 10 мин, порывы в срок и между сроками (в фигурных скобках) и направление, откуда дует ветер: С - северный, СВ - северо-восточный, В - восточный, ЮВ - юго-восточный, Ю - южный, ЮЗ - юго-западный, З - западный, СЗ - северо-западный.
Видимость - горизонтальная дальность видимости в метрах или километрах. При видимости от 1 до 10 км при отсутствии осадков обычно наблюдается дымка, при ухудшении видимости до 1 км и менее - туман. В сухую погоду видимость может ухудшаться дымом, пылью или мглою.
Явления - указаны атмосферные явления, наблюдавшиеся в срок или в последний час перед сроком; фигурными скобками обозначены явления, наблюдавшиеся между сроками (за 1-3 часа до срока); квадратными скобками обозначены град или гололедные отложения с указанием их диаметра в мм.
Облачность - указаны через наклонную черту общая и нижняя облачность в баллах и высота нижней границы облаков в метрах; квадратными скобками обозначены формы облаков: Ci - перистые, Cs - перисто-слоистые, Cc - перисто-кучевые, Ac - высококучевые, As - высокослоистые, Sc - слоисто-кучевые, Ns - слоисто-дождевые, Cu - кучевые, Cb - кучево-дождевые. Подробнее классификацию облаков см. в Атласе облаков (PDF).
T - Температура воздуха - температура, измеренная на высоте 2 м над землей.
Td - Температура точки росы - температура, при понижении до которой содержащийся в воздухе водяной пар достигнет насыщения.
f - Относительная влажность воздуха - влажноcть воздуха, измеренная на высоте 2 м над землей.
Te - Эффективная температура - температура, которую ощущает одетый по сезону человек в тени. Характеристика душности погоды. При расчете учитывается влияние влажности воздуха и скорости ветра на теплоощущения человека.
Tes - Эффективная температура на солнце - температура, которую ощущает человек, с поправкой на солнечный нагрев. Характеристика знойности погоды. Зависит от высоты солнца над горизонтом, облачности и скорости ветра. Ночью, в пасмурную погоду, а также при ветре 12 м/с и более поправка равна нулю.
P - Атмосферное давление - приведенное к уровню моря атмосферное давление.
Po - Атмосферное давление - измеренное на уровне метеостанции атмосферное давление.
Tmin - Минимальная температура - минимум температуры воздуха на высоте 2 м над землей.
Tmax - Максимальная температура - максимум температуры воздуха на высоте 2 м над землей.
R - Количество осадков - Количество выпавших осадков за период времени, мм. При наведении курсора мыши на число - период времени, за который выпало указанное количество осадков.
R24 - Количество осадков - Количество выпавших осадков за 24 часа, мм.
S - Снежный покров - Высота снежного покрова, см. При наведении курсора мыши на число - состояние снежного покрова и степень покрытия местности в баллах.